Location: Multiple Mirror Telescope
(31.6889°N, 110.8853°W)
Time: 13:20:00
(UTC-07:00)

Hubble Space Telescope - Pass Details

Date: 29 November 2023
Orbit: 516 x 519 km, 28.5° (Epoch: 27 February)

Event Time Altitude Azimuth Distance (km) Brightness Sun altitude
Rises 18:03:51 0° 263° (W) 2,619 6.2 -9.5°
Reaches altitude 10° 18:06:07 10° 259° (WSW) 1,734 5.0 -10.0°
Maximum altitude 18:10:02 54° 181° (S) 630 1.2 -10.7°
Enters shadow 18:13:37 12° 105° (ESE) 1,607 2.7 -11.5°
